Weather History for Ramona, CA

Change the Weather History Date:

Saturday, February 2, 2013

  Actual Average Record
Temperature  
Mean Temperature 61 °F 50 °F  
Max Temperature 80 °F 65 °F 86 °F (1995)
Min Temperature 41 °F 36 °F 27 °F (1975)
Degree Days  
Heating Degree Days 4 15  
Month to date heating degree days 15 30  
Since 1 July heating degree days 1327 1377  
Cooling Degree Days 0 0  
Month to date cooling degree days 0 0  
Year to date cooling degree days 0 1  
Growing Degree Days 10 (Base 50)    
Moisture  
Dew Point 41 °F    
Average Humidity 51    
Maximum Humidity 89    
Minimum Humidity 13    
Precipitation  
Precipitation 0.00 in 0.06 in 1.35 in (1988)
Month to date precipitation 0.00 0.13  
Year to date precipitation 1.60 3.45  
Since 1 July precipitation 5.24 8.16  
Snow  
Snow 0.00 in - - ()
Month to date snowfall 0.0  
Year to date snowfall 0.0  
Since 1 July snowfall 0.0  
Snow Depth 0.00 in    
Sea Level Pressure  
Sea Level Pressure 30.14 in    
Wind  
Wind Speed 2 mph (WNW)    
Max Wind Speed 22 mph    
Max Gust Speed 77 mph    
Visibility 10 miles    
Events Rain    
T = Trace of Precipitation, MM = Missing Value Source: NWS Daily Summary

Daily Weather History Graph

Daily Weather History Graph

Search for Another Location

Airport:

Trip Planner

Search our weather history database for the weather conditions in past years. The results will help you decide how hot, cold, wet, or windy it might be!

Date:

Astronomy

Feb. 02, 2013 Rise Set
Actual Time 6:42 AM PST 5:21 PM PST
Civil Twilight 6:16 AM PST 5:47 PM PST
Nautical Twilight 5:46 AM PST 6:16 PM PST
Astronomical Twilight 5:17 AM PST 6:45 PM PST
Moon No Moon Rise 10:20 AM PST (2/2)
Length of Visible Light 11h 30m
Length of Day
10h 39m
Waning Gibbous, 58% of the Moon is Illuminated
Feb 2
Waning Gibbous
Feb 3
Last Quarter
Feb 9
New
Feb 17
First Quarter
Feb 25
Full

Hourly Weather History & Observations

Time (PST) Temp. Windchill Dew Point Humidity Pressure Visibility Wind Dir Wind Speed Gust Speed Precip Events Conditions
12:53 AM 50.0 °F - 41.0 °F 71% 30.15 in 10.0 mi Calm Calm - N/A   Clear
1:53 AM 48.0 °F - 39.0 °F 71% 30.15 in 10.0 mi Calm Calm - N/A   Clear
2:53 AM 43.0 °F - 39.0 °F 86% 30.16 in 10.0 mi Calm Calm - N/A   Clear
3:53 AM 42.1 °F - 37.9 °F 85% 30.15 in 10.0 mi Calm Calm - N/A   Clear
4:53 AM 41.0 °F - 37.0 °F 86% 30.17 in 10.0 mi Calm Calm - N/A   Clear
5:53 AM 42.1 °F - 37.0 °F 82% 30.17 in 10.0 mi Calm Calm - N/A   Clear
6:53 AM 43.0 °F 41.3 °F 37.9 °F 82% 30.18 in 10.0 mi East 3.5 mph - N/A   Clear
7:53 AM 50.0 °F - 39.9 °F 68% 30.19 in 10.0 mi Calm Calm - N/A   Clear
8:53 AM 64.0 °F - 43.0 °F 46% 30.19 in 10.0 mi Calm Calm - N/A   Clear
9:53 AM 72.0 °F - 37.0 °F 28% 30.18 in 10.0 mi Calm Calm - N/A   Clear
10:53 AM 75.0 °F - 30.0 °F 19% 30.16 in 10.0 mi East 5.8 mph - N/A   Clear
11:53 AM 78.1 °F - 24.1 °F 14% 30.13 in 10.0 mi NW 3.5 mph - N/A   Clear
12:53 PM 79.0 °F - 24.1 °F 13% 30.09 in 10.0 mi Calm Calm - N/A   Clear
1:53 PM 75.0 °F - 39.9 °F 28% 30.08 in 10.0 mi West 9.2 mph - N/A   Clear
2:53 PM 70.0 °F - 46.9 °F 44% 30.10 in 10.0 mi West 5.8 mph - N/A   Overcast
3:53 PM 68.0 °F - 46.9 °F 47% 30.10 in 10.0 mi WNW 3.5 mph - N/A   Overcast
4:53 PM 66.0 °F - 48.0 °F 52% 30.11 in 10.0 mi WNW 4.6 mph - N/A   Overcast
5:53 PM 63.0 °F - 48.0 °F 58% 30.13 in 10.0 mi WNW 8.1 mph - N/A   Overcast
6:53 PM 60.1 °F - 46.9 °F 62% 30.16 in 10.0 mi Calm Calm - N/A   Overcast
7:53 PM 59.0 °F - 46.9 °F 64% 30.17 in 10.0 mi Calm Calm - N/A   Overcast
8:53 PM 57.9 °F - 46.9 °F 67% 30.15 in 10.0 mi Calm Calm - N/A   Mostly Cloudy
9:53 PM 57.0 °F - 48.9 °F 74% 30.13 in 10.0 mi Calm Calm - 0.00 in Rain Light Rain
10:53 PM 55.0 °F - 50.0 °F 83% 30.13 in 10.0 mi Calm Calm - 0.00 in Rain Light Rain
11:53 PM 54.0 °F - 51.1 °F 90% 30.12 in 10.0 mi SE 3.5 mph - 0.01 in Rain Light Rain